Location: Bacharowice
(49.9333°N, 19.5833°E)
Time: 06:57:38
(UTC+00:00)

Cosmos 2344 - Pass Details

Date: 27 September 2021
Orbit: 1235 x 3007 km, 63.3° (Epoch: 19 October)

Event Time Altitude Azimuth Distance (km) Brightness Sun altitude
Rises 23:19:43 0° 316° (NW) 4,586 6.8 -41.0°
Reaches altitude 10° 23:22:28 10° 311° (NW) 3,756 6.2 -40.9°
Enters shadow 23:26:56 31° 291° (WNW) 2,691 5.2 -40.7°
